{"data":{"norad_id":51464,"intl_designator":"2022-010J","name":"STARLINK-3189","alt_names":[],"object_type":"PAYLOAD","status":"ACTIVE","operator":null,"country":"US","launch_date":"2022-02-03","launch_site_code":"AFETR","launch_vehicle":null,"mission":null,"orbit_class":"UNKNOWN","rcs_meters":null,"size_class":null,"mass_kg":null,"dimensions":null,"purposes":["comms"],"wikipedia_slug":null,"has_3d_model":false,"image_url":null,"decayed_at":null,"tle_current":{"epoch":"2026-09-20T03:59:14.052768Z","epoch_age_seconds":77246,"freshness":"FRESH","line1":"1 51464U 22010J   26263.16613487 -.00001040  00000+0 -19660-4 0  9992","line2":"2 51464  53.1606 117.6386 0001283  95.4173 264.6976 15.34380259256797","mean_motion":15.34380259,"eccentricity":0.0001283,"inclination_deg":53.1606,"raan_deg":117.6386,"arg_perigee_deg":95.4173,"mean_anomaly_deg":264.6976,"bstar":-1.966e-5,"rev_number":25679,"period_min":93.848965506014,"perigee_km":461.88422791758,"apogee_km":463.63960257924,"semimajor_km":6840.8989152484,"source":"CELESTRAK","updated_at":"2026-09-20T09:00:39.594516Z"}}}